This demonstration page uses our WeatherBlox Daily Observations layout. Learn more.

Left ArrowRight Arrow

34.02893, -84.19858

Hourly Observations for December 23, 2018

Temp ( °F °C ) Dew Point ( °F °C ) Humidity (%) Winds ( mph kmh ) Pressure ( in mb ) Visibility ( mi km ) Precip ( " mm )
12:53 am 00:53 Clear with Mist and Fog 31 -0.6 30 -1.1 96 96 Calm 30.20 1023 5 8 0.00 0.00
1:53 am 01:53 Clear with Mist and Fog 32 0 29 -1.7 88 88 Calm 30.21 1023 6 10 0.00 0.00
2:53 am 02:53 Clear with Mist and Fog 30 -1.1 29 -1.7 96 96 Calm 30.23 1024 4 6 0.00 0.00
3:53 am 03:53 Clear with Mist and Fog 30 -1.1 29 -1.7 96 96 Calm 30.24 1024 3 5 0.00 0.00
4:53 am 04:53 Clear with Mist and Fog 29 -1.7 28 -2.2 96 96 Calm 30.23 1024 4 6 0.00 0.00
5:53 am 05:53 Clear with Mist and Fog 29 -1.7 28 -2.2 96 96 Calm 30.23 1024 4 6 0.00 0.00
6:53 am 06:53 Clear with Mist and Fog 30 -1.1 28 -2.2 92 92 Calm 30.23 1024 4 6 0.00 0.00
7:53 am 07:53 Sunny 30 -1.1 29 -1.7 96 96 Calm 30.23 1024 10 16 0.00 0.00
8:04 am 08:04 Sunny with Mist and Fog 30 -1.1 29 -1.7 96 96 Calm 30.24 1024 3 4 0.00 0.00
8:17 am 08:17 Sunny 31 -0.6 30 -1.1 96 96 Calm 30.24 1024 10 16 0.00 0.00
8:53 am 08:53 Sunny 35 1.7 34 1.1 96 96 W 3 6 30.22 1023 10 16 0.00 0.00
9:53 am 09:53 Mostly Sunny 44 6.7 37 2.8 76 76 SSE 6 9 30.22 1023 7 11 0.00 0.00
10:53 am 10:53 Cloudy 50 10 42 5.6 74 74 S 6 9 30.20 1023 8 13 0.00 0.00
11:53 am 11:53 Mostly Cloudy 57 13.9 46 7.8 67 67 SSW 13 20 30.15 1021 9 14 0.00 0.00
12:26 pm 12:26 Cloudy with Light Rain 55 12.8 49 9.4 80 80 SW 15 24 30.12 1020 3 4 0.01 0.25
12:38 pm 12:38 Cloudy with Light Rain 53 11.7 49 9.4 86 86 W 9 15 30.12 1020 3 5 0.03 0.76
12:53 pm 12:53 Cloudy with Mist and Fog 53 11.7 50 10 89 89 WSW 5 7 30.13 1020 3 5 0.03 0.76
1:53 pm 13:53 Mostly Cloudy 58 14.4 51 10.6 78 78 WSW 15 24 30.10 1019 9 14 0.00 0.00
2:53 pm 14:53 Cloudy 57 13.9 50 10 78 78 W 5 7 30.10 1019 9 14 0.00 0.00
2:55 pm 14:55 Cloudy 57 13.9 50 10 78 78 W 6 9 30.06 1018 9 14 0.00 0.00
3:50 pm 15:50 Cloudy 57 14 50 10 77 77 W 6 9 30.09 1019 9 14 0.00 0.00
3:53 pm 15:53 Cloudy 58 14.4 50 10 75 75 W 7 11 30.11 1020 9 14 0.00 0.00
4:15 pm 16:15 Cloudy 57 13.9 50 10 78 78 W 6 9 30.09 1019 9 14 0.00 0.00
4:53 pm 16:53 Cloudy with Light Rain 56 13.3 50 10 81 81 WNW 8 13 30.14 1021 4 6 0.00 0.03
5:09 pm 17:09 Cloudy 56 13.3 51 10.6 84 84 W 9 15 30.12 1020 9 14 0.00 0.03
5:53 pm 17:53 Mostly Cloudy 56 13.3 49 9.4 77 77 W 8 13 30.16 1021 9 14 0.00 0.03
6:53 pm 18:53 Mostly Clear 53 11.7 47 8.3 80 80 W 7 11 30.18 1022 9 14 0.00 0.00
7:53 pm 19:53 Clear 51 10.6 46 7.8 83 83 W 7 11 30.19 1023 9 14 0.00 0.00
8:53 pm 20:53 Clear 51 10.6 46 7.8 83 83 WNW 15 24 30.22 1023 9 14 0.00 0.00
9:53 pm 21:53 Clear 49 9.4 44 6.7 83 83 WNW 12 19 30.22 1023 9 14 0.00 0.00
10:53 pm 22:53 Partly Cloudy 48 8.9 43 6.1 83 83 NW 14 22 30.23 1024 9 14 0.00 0.00
11:53 pm 23:53 Mostly Clear 45 7.2 40 4.4 83 83 NW 14 22 30.23 1024 10 16 0.00 0.00

Powered by AerisWeather